Location: Morlupo
(42.1333°N, 12.5000°E)
Time: 16:39:58
(UTC+00:00)

ATLAS 3B R/B - Pass Details

Date: 18 September 2020
Orbit: 1016 x 1179 km, 63.8° (Epoch: 04 October)

Event Time Altitude Azimuth Distance (km) Brightness Sun altitude
Rises 21:23:45 0° 324° (NW) 3,845 6.5 -40.9°
Reaches altitude 10° 21:26:21 10° 323° (NW) 2,909 5.6 -41.2°
Enters shadow 21:30:03 35° 320° (NW) 1,675 4.0 -41.6°
